Find Starlink 1274

NORAD ID: 45387 Int'l Des: 2020-019 Owner: SPXS Country: US Constellation: starlink operational
LEOCIRCULAR

現在のビュー

3D地球を読み込み中...

About Starlink 1274

Starlink 1274 (NORAD 45387) is a starlink constellation satellite (v1.0) launched Mar 18, 2020 by SPXS of US. It operates in LEO, CIRCULAR orbit with a mass of 260.00 kg.

Starlink 1274について

説明を読み込み中...

次回通過

Passes for default location (London). Set your location on the main map for personalized predictions.

高度履歴

Loading altitude history...

軌道要素

1 45387U 20019AD 26194.55683449 .00075106 00000-0 63632-3 0 9997
2 45387 53.0150 211.7352 0006073 332.4825 27.5868 15.69024697350235
Epoch: Jul 13, 2026 • Age: 14 hours

現在のステータス

高度 369.8 km
遠地点 / 近地点 N/A
速度 7.69 km/s
衛星直下点 53.15°N, 43.58°W
打ち上げ日 Mar 18, 2020
運用期間 6.3 years
タイプ internet

技術仕様

分類 Payload
質量 260.00 kg
乾燥質量 248.00 kg
総質量 260.00 kg
長さ 0.20 m
直径 2.80 m
スパン 9.00 m
形状 Box + pan
製造者 SPXS
バスタイプ Starlink
フェーズステータス In Orbit
所有者/国 SPXS/US

Most Searched